Weather History for Mazatlan Airport, Mexico

Change the Weather History Date:

Friday, February 22, 2013

  Actual Average Record
Temperature  
Mean Temperature 60 °F -  
Max Temperature 75 °F 78 °F 87 °F (2002)
Min Temperature 44 °F 51 °F 44 °F (2013)
Degree Days  
Heating Degree Days 6    
Growing Degree Days 10 (Base 50)    
Moisture  
Dew Point 46 °F    
Average Humidity 63    
Maximum Humidity 93    
Minimum Humidity 36    
Precipitation  
Precipitation 0.00 in - - ()
Sea Level Pressure  
Sea Level Pressure 29.92 in    
Wind  
Wind Speed 7 mph ()    
Max Wind Speed 15 mph    
Max Gust Speed -    
Visibility 12.2 miles    
Events      
Averages and records for this station are not official NWS values.
T = Trace of Precipitation, MM = Missing Value Source: Averaged Metar Reports

Daily Weather History Graph

Daily Weather History Graph

Search for Another Location

Airport:

Trip Planner

Search our weather history database for the weather conditions in past years. The results will help you decide how hot, cold, wet, or windy it might be!

Date:

Astronomy

Feb. 22, 2013 Rise Set
Actual Time 6:32 AM MST 6:05 PM MST
Civil Twilight 6:09 AM MST 6:27 PM MST
Nautical Twilight 5:43 AM MST 6:54 PM MST
Astronomical Twilight 5:16 AM MST 7:20 PM MST
Moon 3:31 PM MST (2/22) 4:05 AM MST (2/22)
Length of Visible Light 12h 18m
Length of Day
11h 32m
Waxing Gibbous, 90% of the Moon is Illuminated
Feb 22
Waxing Gibbous
Feb 25
Full
Mar 4
Last Quarter
Mar 11
New
Mar 19
First Quarter

Hourly Weather History & Observations

Time (MST) Temp. Windchill Dew Point Humidity Pressure Visibility Wind Dir Wind Speed Gust Speed Precip Events Conditions
12:45 AM 48.2 °F - 42.8 °F 82% 29.91 in 10.0 mi North 8.1 mph - N/A   Mostly Cloudy
1:40 AM 48.2 °F - 44.6 °F 87% 29.89 in 10.0 mi NNE 8.1 mph - N/A   Mostly Cloudy
2:42 AM 48.2 °F - 42.8 °F 82% 29.90 in 10.0 mi North 8.1 mph - N/A   Mostly Cloudy
3:40 AM 46.4 °F 42.4 °F 42.8 °F 87% 29.90 in 10.0 mi North 8.1 mph - N/A   Mostly Cloudy
4:40 AM 44.6 °F 40.7 °F 41.0 °F 87% 29.91 in 10.0 mi NNE 6.9 mph - N/A   Scattered Clouds
5:40 AM 44.6 °F 40.7 °F 42.8 °F 93% 29.93 in 10.0 mi North 6.9 mph - N/A   Scattered Clouds
6:45 AM 44.6 °F 40.2 °F 41.0 °F 87% 29.95 in 12.0 mi NNE 8.1 mph - N/A   Scattered Clouds
7:49 AM 53.6 °F - 46.4 °F 77% 29.95 in 12.0 mi NNE 8.1 mph - N/A   Scattered Clouds
8:43 AM 60.8 °F - 48.2 °F 63% 29.98 in 12.0 mi North 6.9 mph - N/A   Partly Cloudy
9:53 AM 69.8 °F - 48.2 °F 46% 29.98 in 15.0 mi NNE 6.9 mph - N/A   Partly Cloudy
10:43 AM 73.4 °F - 50.0 °F 44% 29.98 in 15.0 mi South 8.1 mph - N/A   Partly Cloudy
11:42 AM 73.4 °F - 48.2 °F 41% 29.95 in 15.0 mi SSW 9.2 mph - N/A   Scattered Clouds
12:51 PM 75.2 °F - 50.0 °F 41% 29.91 in 15.0 mi WSW 9.2 mph - N/A   Partly Cloudy
1:41 PM 75.2 °F - 48.2 °F 38% 29.89 in 15.0 mi SW 11.5 mph - N/A   Partly Cloudy
2:42 PM 75.2 °F - 46.4 °F 36% 29.88 in 15.0 mi WSW 15.0 mph - N/A   Scattered Clouds
3:41 PM 73.4 °F - 46.4 °F 38% 29.87 in 15.0 mi WSW 13.8 mph - N/A   Scattered Clouds
4:41 PM 71.6 °F - 46.4 °F 41% 29.88 in 15.0 mi WSW 11.5 mph - N/A   Mostly Cloudy
5:44 PM 68.0 °F - 46.4 °F 46% 29.87 in 15.0 mi West 12.7 mph - N/A   Mostly Cloudy
6:45 PM 64.4 °F - 46.4 °F 52% 29.89 in 12.0 mi West 8.1 mph - N/A   Mostly Cloudy
7:40 PM 62.6 °F - 50.0 °F 63% 29.91 in 10.0 mi WNW 8.1 mph - N/A   Mostly Cloudy
8:41 PM 59.0 °F - 48.2 °F 67% 29.92 in 10.0 mi Calm Calm - N/A   Overcast
9:45 PM 59.0 °F - 48.2 °F 67% 29.92 in 10.0 mi WSW 6.9 mph - N/A   Overcast
10:51 PM 57.2 °F - 46.4 °F 67% 29.91 in 10.0 mi NNE 6.9 mph - N/A   Overcast
11:47 PM 57.2 °F - 48.2 °F 72% 29.92 in 10.0 mi NNE 8.1 mph - N/A   Mostly Cloudy